BEIDOU-2 IGSO-2

Last updated on Sat Jul 05 2025 00:02:45 GMT+0000 (Coordinated Universal Time)

1 37256U 10068A 25185.62652854 -.00000210 00000+0 00000+0 0 9999 2 37256 48.1738 276.1373 0047516 213.9231 125.8170 1.00284768 53300
UTC large
Height (km)
Speed (km/s)
/
Latitude / Longitude
Inclination (degrees)
Orbital Period (minutes)
Azimuth
Elevation
Range (km)
Doppler Factor

Next 0 passes for location: London (51.5072 / 0.1276)

Sorry there are no passes over London.